Location: Franzen
(48.6167°N, 15.3833°E)
Time: 01:34:45
(UTC+00:00)

Transit 2A - Pass Details

Date: 06 August 2021
Orbit: 594 x 964 km, 66.7° (Epoch: 21 September)

Event Time Altitude Azimuth Distance (km) Brightness Sun altitude
Rises 04:05:45 0° 206° (SSW) 2,839 8.5 3.1°
Reaches altitude 10° 04:07:56 10° 204° (SSW) 1,961 7.7 3.5°
Maximum altitude 04:12:17 69° 122° (ESE) 685 6.1 4.1°
Drops below altitude 10° 04:17:02 10° 39° (NE) 2,129 9.5 4.9°
Sets 04:19:29 0° 37° (NE) 3,106 10.2 5.2°
